Home > Weather > Kuujjuaq > Past weeks

Flag for Canada Past Weather in Kuujjuaq, Quebec, Canada — Yesterday and Last 2 Weeks

Now
50 °F

Broken clouds.


Feels Like: 48 °F
Forecast: 46 / 65 °F
Wind: 6 mph from Northeast

Location: Kuujjuaq

Current Time: Jul 24, 2016 at 6:50:46 AM

Latest Report: Jul 24, 2016 at 6:00 AM


Visibility: 15 mi

Pressure: 29.93 "Hg

Humidity: 88%

Dew Point: 46 °F

Location of KuujjuaqLocation

Past Weather in Kuujjuaq — Graph

°F

Kuujjuaq Temperature Yesterday

Maximum temperature yesterday: 59 °F (at 2:00 PM)
Minimum temperature yesterday: 48 °F (at 5:00 AM)
Average temperature yesterday: 53 °F

High & Low Weather Summary for the Past Weeks

 TemperatureHumidityPressure
High81 °F (Jul 17, 1:00 PM)100% (Jul 10, 12:52 AM)30.09 "Hg (Jul 10, 12:52 AM)
Low34 °F (Jul 10, 12:00 AM)23% (Jul 10, 6:00 PM)29.18 "Hg (Jul 15, 1:00 AM)
Average57 °F76%29.68 "Hg
* Reported Jul 9 5:00 AM — Jul 24 5:00 AM, Kuujjuaq, Weather by CustomWeather, © 2016

Note: Actual official high and low records may vary slightly from our data, if they occured in-between our weather recording intervals... More about our weather records

Advertising

Kuujjuaq Weather History for the Previous 24 Hours

Scroll right to see more
 ConditionsComfort  
Time TempWeatherWind HumidityBarometerVisibility
5:00 AM
Sun, Jul 24
50 °FPassing clouds.3 mph88%29.92 "Hg15 mi
4:00 AM50 °FLight rain. Partly cloudy.5 mph94%29.90 "Hg15 mi
3:00 AM48 °FLight rain. Partly cloudy.2 mph94%29.90 "Hg15 mi
2:00 AM48 °FPartly cloudy.6 mph94%29.90 "Hg15 mi
1:00 AM48 °FPartly cloudy.6 mph94%29.88 "Hg15 mi
12:00 AM50 °FPartly cloudy.7 mph88%29.86 "Hg15 mi
11:00 PM
Sat, Jul 23
50 °FPassing clouds.5 mph88%29.85 "Hg15 mi
10:00 PM52 °FPartly sunny.5 mph88%29.83 "Hg15 mi
9:00 PM52 °FPartly sunny.6 mph88%29.83 "Hg15 mi
8:00 PM54 °FPartly sunny.7 mph82%29.82 "Hg15 mi
7:00 PM55 °FPartly sunny.7 mph82%29.80 "Hg15 mi
6:00 PM55 °FPartly sunny.6 mph82%29.80 "Hg15 mi
5:00 PM55 °FPartly sunny.10 mph82%29.79 "Hg15 mi
4:00 PM59 °FPartly sunny.10 mph77%29.78 "Hg15 mi
3:00 PM59 °FPartly sunny.9 mph77%29.76 "Hg15 mi
2:00 PM59 °FPartly sunny.6 mph82%29.76 "Hg15 mi
1:00 PM57 °FPartly sunny.5 mph77%29.76 "Hg15 mi
12:00 PM55 °FOvercast.2 mph82%29.75 "Hg15 mi
11:00 AM54 °FOvercast.7 mph82%29.75 "Hg15 mi
10:00 AM52 °FOvercast.2 mph82%29.74 "Hg15 mi
9:00 AM50 °FOvercast.6 mph88%29.73 "Hg15 mi
8:00 AM48 °FMore clouds than sun.6 mph94%29.73 "Hg15 mi
7:00 AM48 °FMostly cloudy.7 mph94%29.72 "Hg15 mi
6:00 AM48 °FMostly cloudy.8 mph100%29.71 "Hg15 mi
Weather by CustomWeather, © 2016

See weather overviewHow to use our weather pages